Home > Weather > Euskirchen > Past weeks

Flag for Germany Past Weather in Euskirchen, North Rhine-Westphalia, Germany — Yesterday and Last 2 Weeks

Now
72 °F

Passing clouds.


Feels Like: 74 °F
Forecast: 62 / 77 °F
Wind: 8 mph from West

Location: Noervenich

Current Time: Jul 25, 2016 at 12:38:41 AM

Latest Report: Jul 24, 2016 at 11:20 PM


Visibility: N/A

Pressure: 30.09 "Hg

Humidity: 73%

Dew Point: 63 °F

Location of EuskirchenLocation

Past Weather in Euskirchen — Graph

°F

Euskirchen Temperature Yesterday

Maximum temperature yesterday: 81 °F (at 5:20 PM)
Minimum temperature yesterday: 64 °F (at 2:20 AM)
Average temperature yesterday: 71 °F

High & Low Weather Summary for the Past Weeks

 TemperatureHumidityPressure
High95 °F (Jul 20, 3:20 PM)100% (Jul 24, 3:20 AM)30.33 "Hg (Jul 24, 3:20 AM)
Low50 °F (Jul 14, 3:20 AM)26% (Jul 20, 3:20 PM)29.77 "Hg (Jul 10, 9:20 PM)
Average69 °F70%30.06 "Hg
* Reported Jul 9 11:20 PM — Jul 24 11:20 PM, Euskirchen, Weather by CustomWeather, © 2016

Note: Actual official high and low records may vary slightly from our data, if they occured in-between our weather recording intervals... More about our weather records

Advertising

Euskirchen Weather History for the Previous 24 Hours

Scroll right to see more
 ConditionsComfort  
Time TempWeatherWind HumidityBarometerVisibility
11:20 PM
Sun, Jul 24
72 °FPassing clouds.8 mph73%30.09 "HgN/A
10:20 PM72 °FScattered clouds.5 mph69%30.09 "HgN/A
9:20 PM73 °FScattered clouds.2 mph69%30.07 "HgN/A
8:20 PM77 °FScattered clouds.2 mph61%30.07 "HgN/A
7:20 PM81 °FScattered clouds.2 mph45%30.07 "HgN/A
6:20 PM81 °FPassing clouds.5 mph48%30.07 "HgN/A
5:20 PM81 °FPassing clouds.5 mph48%30.09 "HgN/A
4:20 PM79 °FScattered clouds.5 mph51%30.09 "HgN/A
3:20 PM77 °FScattered clouds.5 mph57%30.09 "HgN/A
2:20 PM75 °FPartly sunny.5 mph61%30.12 "Hg5 mi
1:20 PM73 °FPartly sunny.6 mph69%30.12 "Hg5 mi
12:20 PM72 °FPartly sunny.6 mph73%30.12 "Hg3 mi
11:20 AM72 °FPartly sunny.6 mph73%30.12 "Hg3 mi
10:20 AM68 °FFog.8 mph83%30.12 "Hg2 mi
9:53 AM68 °FFog.8 mph88%30.12 "Hg2 mi
9:20 AM68 °FFog.9 mph88%30.12 "Hg2 mi
8:20 AM66 °FFog.6 mph94%30.12 "Hg2 mi
7:20 AM66 °FFog.8 mph94%30.12 "Hg2 mi
6:20 AM66 °FFog.7 mph94%30.09 "Hg1 mi
5:20 AM66 °FFog.7 mph94%30.09 "Hg1 mi
4:20 AM66 °FFog.8 mph94%30.09 "Hg3 mi
3:48 AM66 °FFog.9 mph94%30.09 "Hg3 mi
3:20 AM64 °FFog.9 mph100%30.09 "Hg3 mi
2:20 AM64 °FFog.8 mph94%30.09 "Hg3 mi
1:20 AM66 °FPassing clouds.6 mph94%30.09 "Hg6 mi
12:20 AM68 °FPassing clouds.3 mph88%30.09 "HgN/A
Weather by CustomWeather, © 2016

See weather overviewHow to use our weather pages